TimePDT,TemperatureF,Dew PointF,Humidity,Sea Level PressureIn,VisibilityMPH,Wind Direction,Wind SpeedMPH,Gust SpeedMPH,PrecipitationIn,Events,Conditions,WindDirDegrees,DateUTC
12:53 AM,53.1,50.0,89,29.77,10.0,Calm,Calm,-,N/A,,Mostly Cloudy,0,2013-05-29 07:53:00
1:53 AM,53.1,50.0,89,29.75,10.0,Calm,Calm,-,N/A,,Mostly Cloudy,0,2013-05-29 08:53:00
2:53 AM,52.0,50.0,93,29.72,10.0,Calm,Calm,-,N/A,,Scattered Clouds,0,2013-05-29 09:53:00
3:53 AM,53.1,50.0,89,29.72,9.0,South,8.1,-,0.00,Rain,Light Rain,190,2013-05-29 10:53:00
4:53 AM,50.0,48.0,93,29.71,7.0,WSW,6.9,-,0.08,Rain,Light Rain,250,2013-05-29 11:53:00
5:53 AM,50.0,48.0,93,29.72,5.0,Calm,Calm,-,0.02,Rain,Light Rain,0,2013-05-29 12:53:00
6:33 AM,50.0,48.2,94,29.70,10.0,WNW,3.5,-,0.02,,Overcast,290,2013-05-29 13:33:00
6:53 AM,50.0,48.0,93,29.72,10.0,Calm,Calm,-,0.02,Rain,Light Rain,0,2013-05-29 13:53:00
7:53 AM,51.1,48.9,92,29.73,10.0,NW,3.5,-,0.01,Rain,Light Rain,310,2013-05-29 14:53:00
8:53 AM,53.1,50.0,89,29.73,10.0,NW,5.8,-,0.00,,Overcast,320,2013-05-29 15:53:00
9:32 AM,55.4,50.0,82,29.72,10.0,NNW,6.9,-,N/A,,Overcast,330,2013-05-29 16:32:00
9:53 AM,55.0,51.1,86,29.74,10.0,NW,5.8,-,N/A,,Overcast,320,2013-05-29 16:53:00
10:11 AM,55.4,50.0,82,29.73,10.0,West,4.6,-,N/A,,Overcast,280,2013-05-29 17:11:00
10:53 AM,55.9,50.0,80,29.77,10.0,NNW,4.6,-,N/A,,Overcast,330,2013-05-29 17:53:00
11:19 AM,55.4,50.0,82,29.76,10.0,NNW,3.5,-,N/A,,Overcast,340,2013-05-29 18:19:00
11:53 AM,55.9,48.9,77,29.79,10.0,SW,8.1,-,N/A,,Overcast,220,2013-05-29 18:53:00
12:53 PM,59.0,48.9,69,29.82,10.0,South,9.2,-,N/A,,Overcast,190,2013-05-29 19:53:00
1:53 PM,57.9,46.9,67,29.83,10.0,South,6.9,-,N/A,,Overcast,170,2013-05-29 20:53:00
2:39 PM,57.2,51.8,82,29.84,5.0,South,8.1,-,0.01,Rain,Rain,190,2013-05-29 21:39:00
2:53 PM,57.9,51.1,78,29.86,10.0,SSE,9.2,-,0.02,Rain,Light Rain,150,2013-05-29 21:53:00
3:53 PM,60.1,48.0,64,29.87,10.0,South,13.8,21.9,0.00,,Overcast,190,2013-05-29 22:53:00
4:53 PM,62.1,46.9,58,29.88,10.0,South,13.8,25.3,N/A,,Overcast,180,2013-05-29 23:53:00
5:53 PM,60.1,46.0,60,29.90,10.0,South,11.5,19.6,N/A,,Mostly Cloudy,190,2013-05-30 00:53:00
6:53 PM,60.1,46.0,60,29.91,10.0,South,8.1,-,N/A,,Overcast,190,2013-05-30 01:53:00
7:53 PM,57.9,46.0,65,29.94,10.0,South,9.2,-,N/A,,Overcast,170,2013-05-30 02:53:00
8:53 PM,55.9,45.0,67,29.95,10.0,Variable,3.5,-,N/A,,Mostly Cloudy,0,2013-05-30 03:53:00
9:53 PM,55.9,46.0,69,29.96,10.0,South,8.1,-,N/A,,Overcast,180,2013-05-30 04:53:00
10:53 PM,55.0,46.9,74,29.99,10.0,South,6.9,-,N/A,,Overcast,180,2013-05-30 05:53:00
11:27 PM,53.6,48.2,82,29.98,10.0,Variable,6.9,-,0.00,,Overcast,0,2013-05-30 06:27:00
11:53 PM,54.0,48.9,83,30.00,10.0,South,4.6,-,0.00,,Overcast,170,2013-05-30 06:53:00